Regional Weather Roundup
Issued by NWS Kansas City/Pleasant Hill, MO

Home | Current Version | Previous Version | Text Only | Print | Product List | Glossary On
Versions: 1 2 3 4 5 6 7 8 9 10 11 12 13 14 15 16 17 18 19 20 21 22 23 24 25 26 27
000
ASUS43 KEAX 231910
RWREAX

WEATHER ROUNDUP FOR EASTERN KANSAS AND NORTHWEST MISSOURI
NATIONAL WEATHER SERVICE KANSAS CITY/PLEASANT HILL MO
200 PM CDT THU MAR 23 2017

KSZ040-057-103>105-MOZ028-029-037-043-232000-
...KANSAS CITY METROPOLITAN AREA...

CITY           SKY/WX    TMP DP  RH WIND       PRES   REMARKS
K.C. INTL      MOSUNNY   74  51  44 S23G31    29.89F
K.C. DOWNTOWN  SUNNY     76  51  41 S20G28    29.90F
LEES SUMMIT    SUNNY     74  52  46 S17G32    29.93F
OLATHE - IXD   SUNNY     75  51  43 S24G35    29.90F
OLATHE - OJC   SUNNY     73  52  47 S23G35    29.91F
LAWRENCE       SUNNY     78  52  40 SE32G38   29.85F

$$

MOZ001>008-011>017-020>025-030>033-038>040-044>046-053-054-232000-
...NORTHERN AND CENTRAL MISSOURI...

CITY           SKY/WX    TMP DP  RH WIND       PRES   REMARKS
ST. JOSEPH     SUNNY     74  51  44 S24G31    29.84F
MOSBY          PTCLDY    72  46  40 S12G22    29.91F
WARRENSBURG    SUNNY     73  50  43 S16G24    29.95F
WHITEMAN AFB   MOSUNNY   76  53  44 S23       29.95F
CLINTON        SUNNY     75  54  46 S17G24    29.99F HAZE
SEDALIA        SUNNY     77  52  41 S18G32    30.00F
WARSAW         NOT AVBL
CHILLICOTHE      N/A     68  39  34 SE17G25   29.96F
KIRKSVILLE     SUNNY     57  36  45 SE17      30.03F

$$

MOZ041-047>049-056>058-063>065-088>090-097-232000-
...EASTERN AND SOUTHERN MISSOURI...

CITY           SKY/WX    TMP DP  RH WIND       PRES   REMARKS
ST. LOUIS INTL PTSUNNY   48  37  65 SE18      30.17F
SPIRIT OF STL  MOSUNNY   49  40  71 E13       30.16F
COLUMBIA       SUNNY     69  42  37 S17G25    30.05F
JEFFERSON CITY SUNNY     74  44  34 S10       30.05F
ROLLA          SUNNY     70  45  40 S17G25    30.07F
OSAGE BEACH      N/A    N/A N/A N/A S17       30.05F
SPRINGFIELD    SUNNY     72  50  45 S18       30.05F
BRANSON        MOSUNNY   70  50  49 S13G18    30.11F
JOPLIN         SUNNY     77  49  37 S18G30    30.00F
WEST PLAINS    SUNNY     68  44  42 S14G20    30.15F

$$

IAZ060-094-KSZ022-034>040-054-083-096-NEZ052-066-093-232000-
...KANSAS...SOUTHEAST NEBRASKA AND IOWA...

CITY           SKY/WX    TMP DP  RH WIND       PRES   REMARKS
TOPEKA         SUNNY     76  54  46 S20G32    29.83F
MANHATTAN      SUNNY     76  54  46 S24G35    29.79F
EMPORIA        SUNNY     72  53  51 S24G35    29.85F
CHANUTE        SUNNY     75  52  44 S26G33    29.93F
WICHITA        PTSUNNY   68  57  68 S24G35    29.83F
OMAHA          PTSUNNY   65  42  43 S17G26    29.77F
LINCOLN        CLOUDY    68  52  56 S17       29.75F
FALLS CITY     MOSUNNY   73  51  46 S29G37    29.79F
LAMONI         SUNNY     60  37  42 SE17G30   29.91F
DES MOINES     MOSUNNY   53  34  48 SE23G31   29.93F

$$





USA.gov is the U.S. government's official web portal to all federal, state and local government web resources and services.